Location: Beadle
(51.4667°N, 109.0000°W)
Time: 18:05:35
(UTC+00:00)

O/OREOS (USA 219) - Pass Details

Date: 29 June 2022
Orbit: 621 x 646 km, 72.0° (Epoch: 22 May)

Event Time Altitude Azimuth Distance (km) Brightness Sun altitude
Rises 08:06:52 0° 329° (NNW) 2,964 ? -14.6°
Reaches altitude 10° 08:09:10 10° 326° (NW) 2,052 ? -14.5°
Maximum altitude 08:13:43 62° 247° (WSW) 733 ? -14.4°
Enters shadow 08:16:42 21° 172° (S) 1,450 ? -14.3°
